When you browse on this site, cookies collect data to enhance your experience and personalize the content and advertising you see.
Visit our Privacy Policy to learn more. By continuing to use the site, you agree to this use of cookies and data.
  • In Hungary
  • List of Countries
  • For 7 days
  • Water Temperature
  • Weather Map
  • News
  • Weather Widgets
  • user-avatar
    Login

    Hourly Weather Makarovo

    Today, 19 October, Saturday

    Time Temperature Precipitation Wind Pressure Humidity
    00:00 +10°C° 0 mm 1 mps 745 mmHg 96%
    01:00 +9°C° 0 mm 2 mps 746 mmHg 96%
    02:00 +10°C° 0 mm 1 mps 746 mmHg 97%
    03:00 +9°C° 0 mm 2 mps 745 mmHg 97%
    04:00 +9°C° 0 mm 2 mps 745 mmHg 97%
    05:00 +9°C° 0 mm 2 mps 745 mmHg 97%
    06:00 +9°C° 0.2 mm 2 mps 745 mmHg 96%
    07:00 +10°C° 0.2 mm 2 mps 745 mmHg 96%
    08:00 +10°C° 0 mm 3 mps 745 mmHg 96%
    09:00 +11°C° 0.1 mm 3 mps 745 mmHg 93%
    10:00 +11°C° 0.1 mm 3 mps 745 mmHg 89%
    11:00 +12°C° 0.1 mm 3 mps 745 mmHg 86%
    12:00 +12°C° 0 mm 3 mps 745 mmHg 85%
    13:00 +12°C° 0 mm 3 mps 745 mmHg 84%
    14:00 +12°C° 0 mm 3 mps 745 mmHg 83%
    15:00 +12°C° 0 mm 3 mps 744 mmHg 85%
    16:00 +12°C° 0 mm 3 mps 744 mmHg 87%
    17:00 +11°C° 0 mm 3 mps 744 mmHg 89%
    18:00 +11°C° 0 mm 3 mps 744 mmHg 91%
    19:00 +10°C° 0 mm 3 mps 744 mmHg 92%
    20:00 +10°C° 0 mm 3 mps 745 mmHg 93%
    21:00 +10°C° 0 mm 3 mps 745 mmHg 94%
    22:00 +10°C° 0 mm 3 mps 745 mmHg 95%
    23:00 +10°C° 0 mm 2 mps 745 mmHg 95%

    Tomorrow, 20 October, Sunday

    Time Temperature Precipitation Wind Pressure Humidity
    00:00 +10°C° 0 mm 2 mps 745 mmHg 96%
    01:00 +10°C° 0 mm 2 mps 745 mmHg 96%
    02:00 +9°C° 0 mm 2 mps 746 mmHg 97%
    03:00 +9°C° 0 mm 2 mps 746 mmHg 97%
    04:00 +10°C° 0 mm 2 mps 746 mmHg 97%
    05:00 +10°C° 0 mm 2 mps 746 mmHg 98%
    06:00 +11°C° 0 mm 1 mps 746 mmHg 97%
    07:00 +11°C° 0 mm 1 mps 746 mmHg 97%
    08:00 +11°C° 0 mm 1 mps 746 mmHg 97%
    09:00 +12°C° 0 mm 1 mps 747 mmHg 93%
    10:00 +13°C° 0 mm 1 mps 747 mmHg 89%
    11:00 +13°C° 0 mm 1 mps 747 mmHg 86%
    12:00 +13°C° 0 mm 1 mps 747 mmHg 86%
    13:00 +14°C° 0 mm 1 mps 747 mmHg 85%
    14:00 +14°C° 0 mm 1 mps 747 mmHg 85%
    15:00 +13°C° 0 mm 1 mps 747 mmHg 88%
    16:00 +13°C° 0 mm 1 mps 747 mmHg 91%
    17:00 +12°C° 0 mm 1 mps 747 mmHg 94%
    18:00 +12°C° 0 mm 1 mps 747 mmHg 95%
    19:00 +11°C° 0 mm 1 mps 747 mmHg 95%
    20:00 +11°C° 0 mm 1 mps 746 mmHg 96%
    21:00 +10°C° 0 mm 2 mps 746 mmHg 96%
    22:00 +10°C° 0 mm 2 mps 746 mmHg 95%
    23:00 +10°C° 0 mm 2 mps 745 mmHg 95%

    Day after tomorrow, 21 October, Monday

    Time Temperature Precipitation Wind Pressure Humidity
    00:00 +10°C° 0 mm 3 mps 745 mmHg 95%
    01:00 +10°C° 0 mm 3 mps 744 mmHg 95%
    02:00 +10°C° 0 mm 3 mps 744 mmHg 95%
    03:00 +10°C° 0 mm 3 mps 743 mmHg 95%
    04:00 +10°C° 0 mm 4 mps 743 mmHg 94%
    05:00 +10°C° 0 mm 4 mps 742 mmHg 94%
    06:00 +11°C° 0 mm 4 mps 743 mmHg 93%
    07:00 +11°C° 0 mm 4 mps 743 mmHg 92%
    08:00 +11°C° 0 mm 4 mps 743 mmHg 92%
    09:00 +11°C° 0.4 mm 4 mps 743 mmHg 92%
    10:00 +11°C° 0.4 mm 4 mps 743 mmHg 92%
    11:00 +11°C° 0.4 mm 4 mps 743 mmHg 92%
    12:00 +11°C° 0.8 mm 4 mps 743 mmHg 90%
    13:00 +11°C° 0.8 mm 4 mps 744 mmHg 88%
    14:00 +11°C° 0.8 mm 4 mps 744 mmHg 86%
    15:00 +10°C° 0 mm 4 mps 745 mmHg 86%
    16:00 +9°C° 0 mm 3 mps 745 mmHg 86%
    17:00 +9°C° 0 mm 3 mps 746 mmHg 86%
    18:00 +8°C° 0 mm 3 mps 746 mmHg 87%
    19:00 +7°C° 0 mm 3 mps 747 mmHg 88%
    20:00 +7°C° 0 mm 2 mps 747 mmHg 88%
    21:00 +6°C° 0 mm 2 mps 747 mmHg 90%
    22:00 +5°C° 0 mm 2 mps 748 mmHg 92%
    23:00 +5°C° 0 mm 2 mps 748 mmHg 94%

    22 October, Tuesday

    Time Temperature Precipitation Wind Pressure Humidity
    00:00 +4°C° 0 mm 2 mps 748 mmHg 95%
    01:00 +4°C° 0 mm 2 mps 749 mmHg 95%
    02:00 +5°C° 0 mm 1 mps 749 mmHg 96%
    03:00 +4°C° 0 mm 1 mps 749 mmHg 96%
    04:00 +3°C° 0 mm 2 mps 749 mmHg 96%
    05:00 +3°C° 0 mm 2 mps 749 mmHg 96%
    06:00 +3°C° 0 mm 2 mps 750 mmHg 95%
    07:00 +3°C° 0 mm 2 mps 750 mmHg 93%
    08:00 +3°C° 0 mm 2 mps 750 mmHg 92%
    09:00 +4°C° 0 mm 2 mps 750 mmHg 88%
    10:00 +6°C° 0 mm 1 mps 750 mmHg 84%
    11:00 +7°C° 0 mm 1 mps 750 mmHg 80%
    12:00 +7°C° 0 mm 1 mps 750 mmHg 79%
    13:00 +7°C° 0 mm 2 mps 750 mmHg 77%
    14:00 +7°C° 0 mm 2 mps 750 mmHg 76%
    15:00 +7°C° 0 mm 2 mps 749 mmHg 81%
    16:00 +6°C° 0 mm 2 mps 749 mmHg 86%
    17:00 +5°C° 0 mm 2 mps 748 mmHg 91%
    18:00 +5°C° 0 mm 2 mps 748 mmHg 90%
    19:00 +6°C° 0 mm 2 mps 748 mmHg 88%
    20:00 +5°C° 0 mm 3 mps 748 mmHg 87%
    21:00 +7°C° 0.1 mm 3 mps 747 mmHg 88%
    22:00 +7°C° 0.1 mm 3 mps 747 mmHg 89%
    23:00 +8°C° 0.1 mm 3 mps 746 mmHg 90%

    23 October, Wednesday

    Time Temperature Precipitation Wind Pressure Humidity
    00:00 +8°C° 0 mm 3 mps 746 mmHg 92%
    01:00 +9°C° 0 mm 3 mps 745 mmHg 93%
    02:00 +10°C° 0 mm 3 mps 745 mmHg 95%
    03:00 +10°C° 0 mm 4 mps 745 mmHg 94%
    04:00 +10°C° 0 mm 4 mps 745 mmHg 93%
    05:00 +11°C° 0 mm 4 mps 745 mmHg 92%
    06:00 +10°C° 0 mm 4 mps 744 mmHg 92%
    07:00 +10°C° 0 mm 4 mps 744 mmHg 91%
    08:00 +10°C° 0 mm 4 mps 744 mmHg 91%
    09:00 +11°C° 0 mm 4 mps 744 mmHg 89%
    10:00 +11°C° 0 mm 4 mps 744 mmHg 86%
    11:00 +12°C° 0 mm 4 mps 744 mmHg 84%
    12:00 +12°C° 0 mm 4 mps 743 mmHg 81%
    13:00 +13°C° 0 mm 4 mps 743 mmHg 78%
    14:00 +13°C° 0 mm 4 mps 743 mmHg 76%
    15:00 +12°C° 0 mm 4 mps 743 mmHg 79%
    16:00 +12°C° 0 mm 4 mps 743 mmHg 82%
    17:00 +11°C° 0 mm 3 mps 743 mmHg 84%
    18:00 +11°C° 0 mm 3 mps 743 mmHg 84%
    19:00 +11°C° 0 mm 3 mps 744 mmHg 84%
    20:00 +10°C° 0 mm 3 mps 744 mmHg 83%
    21:00 +10°C° 0 mm 3 mps 744 mmHg 84%
    22:00 +10°C° 0 mm 2 mps 744 mmHg 84%
    23:00 +9°C° 0 mm 2 mps 744 mmHg 85%

    24 October, Thursday

    Time Temperature Precipitation Wind Pressure Humidity
    00:00 +9°C° 0 mm 2 mps 744 mmHg 84%
    01:00 +9°C° 0 mm 2 mps 745 mmHg 84%
    02:00 +9°C° 0 mm 2 mps 745 mmHg 83%
    03:00 +9°C° 0 mm 2 mps 745 mmHg 84%
    04:00 +9°C° 0 mm 2 mps 745 mmHg 84%
    05:00 +9°C° 0 mm 2 mps 745 mmHg 85%
    06:00 +9°C° 0 mm 2 mps 745 mmHg 85%
    07:00 +9°C° 0 mm 2 mps 746 mmHg 85%
    08:00 +9°C° 0 mm 2 mps 746 mmHg 85%
    09:00 +9°C° 0 mm 2 mps 746 mmHg 83%
    10:00 +10°C° 0 mm 2 mps 746 mmHg 80%
    11:00 +12°C° 0 mm 2 mps 746 mmHg 77%
    12:00 +12°C° 0 mm 2 mps 746 mmHg 76%
    13:00 +12°C° 0 mm 2 mps 746 mmHg 75%
    14:00 +12°C° 0 mm 2 mps 746 mmHg 74%
    15:00 +12°C° 0 mm 2 mps 746 mmHg 77%
    16:00 +10°C° 0 mm 2 mps 746 mmHg 81%
    17:00 +10°C° 0 mm 2 mps 746 mmHg 85%
    18:00 +9°C° 0 mm 2 mps 746 mmHg 86%
    19:00 +8°C° 0 mm 2 mps 746 mmHg 88%
    20:00 +8°C° 0 mm 2 mps 746 mmHg 89%
    21:00 +8°C° 0 mm 2 mps 746 mmHg 90%
    22:00 +7°C° 0 mm 2 mps 746 mmHg 90%
    23:00 +7°C° 0 mm 2 mps 746 mmHg 90%
    Show more